Simultaneous Nadir Overpasses (SNOs) Predictions

Prediction of SNOs between METOP-B and TERRA Satellite Orbit:

Table of predicted SNOs for the next 14.0 days since TLE Epoch: 5/2/2020
Index Date (METOP-B) Time (METOP-B) Lat,Lon (METOP-B) SZA (METOP-B ) Date (TERRA) Time (TERRA) Lat,Lon (TERRA) SZA (TERRA ) Distance(km) Time Diff (sec)
1 05/02/2020 04:17:40 81.31, 163.01 68.79 05/02/2020 04:18:36 81.32, 163.02 68.82 0.67 56
2 05/02/2020 05:08:20 -81.32, -29.47 111.20 05/02/2020 05:08:03 -81.31, -29.50 111.22 0.88 17
3 05/04/2020 23:52:02 81.31,-130.77 67.96 05/04/2020 23:52:52 81.30,-130.84 67.97 1.42 50
4 05/05/2020 00:42:41 -81.32, 37.18 111.98 05/05/2020 00:42:18 -81.32, 37.05 112.00 2.25 23
5 05/07/2020 19:26:24 81.31, -64.18 67.21 05/07/2020 19:27:10 81.31, -64.31 67.22 2.16 46
6 05/07/2020 20:17:03 -81.32, 103.82 112.72 05/07/2020 20:16:36 -81.33, 103.62 112.75 3.34 27
7 05/10/2020 15:00:46 81.32, 2.40 66.50 05/10/2020 15:01:30 81.32, 2.25 66.51 2.55 44
8 05/10/2020 15:51:27 -81.32, 169.66 113.52 05/10/2020 15:50:57 -81.31, 169.83 113.52 2.88 30
9 05/13/2020 10:35:08 81.31, 68.58 65.78 05/13/2020 10:35:52 81.31, 68.45 65.78 2.41 44




NCC Satellite Simultaneous Nadir Overpasses (SNOs) Prediction Service
